Frisco, NC

4:04 AM EST on February 20, 2017 (GMT -0500)
Mitchell

Weather History for KHSE - December, 2010

Change the Weather History Date:

Sunday, December 19, 2010

  Actual Average Record
Temperature  
Mean Temperature 40 °F 48 °F  
Max Temperature 45 °F 55 °F 72 °F (1967)
Min Temperature 35 °F 42 °F 25 °F (1979)
Degree Days  
Heating Degree Days 25 17  
Month to date heating degree days 437 274  
Since 1 July heating degree days 704 592  
Cooling Degree Days 0 0  
Month to date cooling degree days 0 0  
Year to date cooling degree days 1852 1711  
Moisture  
Dew Point 36 °F    
Average Humidity 80    
Maximum Humidity 100    
Minimum Humidity 59    
Precipitation  
Precipitation 0.13 in 0.14 in 2.68 in (1936)
Month to date precipitation 2.70 2.57  
Year to date precipitation 60.62 56.34  
Snow  
Snow 0.00 in - - ()
Month to date snowfall 0.0  
Since 1 July snowfall 0.0  
Snow Depth 0.00 in    
Sea Level Pressure  
Sea Level Pressure 29.87 in    
Wind  
Wind Speed 9 mph (North)    
Max Wind Speed 15 mph    
Max Gust Speed 29 mph    
Visibility 6 miles    
Events Rain    
T = Trace of Precipitation, MM = Missing Value Source: NWS Daily Summary

Daily Weather History Graph

Daily Weather History Graph

Search for Another Location

Airport or City:

Trip Planner

Search our weather history database for the weather conditions in past years. The results will help you decide how hot, cold, wet, or windy it might be!

Date:

Astronomy

Dec. 19, 2010 Rise Set
Actual Time 7:06 AM EST 4:53 PM EST
Civil Twilight 6:37 AM EST 5:21 PM EST
Nautical Twilight 6:06 AM EST 5:53 PM EST
Astronomical Twilight 5:35 AM EST 6:24 PM EST
Moon 3:25 PM EST (12/19) 5:26 AM EST (12/19)
Length of Visible Light 10h 43m
Length of Day
9h 47m
Waxing Gibbous, 97% of the Moon is Illuminated
Dec 19
Waxing Gibbous
Dec 21
Full
Dec 27
Last Quarter
Jan 4
New
Jan 12
First Quarter

Hourly Weather History & Observations

Time (EST) Temp. Windchill Dew Point Humidity Pressure Visibility Wind Dir Wind Speed Gust Speed Precip Events Conditions
12:04 AM 44.6 °F 40.2 °F 42.8 °F 93% 29.87 in 4.0 mi NNE 8.1 mph - 0.01 in Rain Light Rain
12:21 AM 44.6 °F 39.7 °F 42.8 °F 93% 29.87 in 4.0 mi NNE 9.2 mph 20.7 mph 0.03 in Rain Light Rain
12:51 AM 43.0 °F 38.8 °F 42.1 °F 97% 29.86 in 5.0 mi North 6.9 mph 18.4 mph 0.05 in Rain Light Rain
1:26 AM 44.6 °F 39.2 °F 42.8 °F 93% 29.87 in 4.0 mi NNE 10.4 mph 20.7 mph 0.02 in Rain Light Rain
1:38 AM 44.6 °F 39.7 °F 42.8 °F 93% 29.87 in 4.0 mi North 9.2 mph 19.6 mph 0.04 in Rain Light Rain
1:49 AM 44.6 °F 39.7 °F 41.0 °F 87% 29.87 in 3.0 mi NNE 9.2 mph 20.7 mph 0.05 in Rain Rain
1:51 AM 43.0 °F 37.2 °F 41.0 °F 93% 29.87 in 3.0 mi NNE 10.4 mph 20.7 mph 0.06 in Rain Rain
2:22 AM 42.8 °F 37.0 °F 41.0 °F 93% 29.86 in 6.0 mi NNE 10.4 mph 23.0 mph 0.03 in Rain Light Rain
2:43 AM 42.8 °F 37.0 °F 41.0 °F 93% 29.86 in 6.0 mi NNE 10.4 mph 21.9 mph 0.03 in Rain Light Rain
2:51 AM 43.0 °F 37.2 °F 41.0 °F 93% 29.85 in 7.0 mi NNE 10.4 mph 20.7 mph 0.03 in Rain Light Rain
3:20 AM 42.8 °F 36.2 °F 41.0 °F 93% 29.85 in 9.0 mi NNE 12.7 mph 23.0 mph 0.00 in   Overcast
3:51 AM 43.0 °F 37.2 °F 41.0 °F 93% 29.85 in 9.0 mi NNE 10.4 mph 20.7 mph 0.00 in   Overcast
4:15 AM 42.8 °F 37.0 °F 41.0 °F 93% 29.85 in 8.0 mi NNE 10.4 mph 21.9 mph N/A   Overcast
4:51 AM 43.0 °F 37.7 °F 41.0 °F 93% 29.84 in 9.0 mi NNE 9.2 mph 20.7 mph N/A   Overcast
5:51 AM 43.0 °F 37.2 °F 39.9 °F 89% 29.85 in 9.0 mi North 10.4 mph 19.6 mph N/A   Overcast
6:39 AM 42.8 °F 37.5 °F 39.2 °F 87% 29.85 in 10.0 mi North 9.2 mph 20.7 mph N/A   Overcast
6:51 AM 43.0 °F 38.2 °F 39.9 °F 89% 29.86 in 9.0 mi North 8.1 mph 20.7 mph N/A   Overcast
7:22 AM 42.8 °F 38.6 °F 39.2 °F 87% 29.86 in 5.0 mi North 6.9 mph - N/A   Overcast
7:33 AM 42.8 °F 38.0 °F 39.2 °F 87% 29.86 in 2.5 mi North 8.1 mph - N/A   Overcast
7:51 AM 42.1 °F 36.6 °F 39.9 °F 92% 29.87 in 2.0 mi North 9.2 mph - N/A   Overcast
8:51 AM 41.0 °F 35.2 °F 39.0 °F 93% 29.88 in 3.0 mi North 9.2 mph 19.6 mph N/A   Overcast
9:51 AM 41.0 °F 34.3 °F 39.0 °F 93% 29.87 in 3.0 mi North 11.5 mph 20.7 mph N/A   Overcast
10:27 AM 42.8 °F 37.5 °F 39.2 °F 87% 29.87 in 4.0 mi North 9.2 mph 21.9 mph N/A   Overcast
10:51 AM 42.1 °F 37.7 °F 39.0 °F 89% 29.87 in 4.0 mi Variable 6.9 mph 19.6 mph N/A   Overcast
11:51 AM 41.0 °F 35.8 °F 37.9 °F 89% 29.85 in 3.0 mi North 8.1 mph 23.0 mph N/A   Overcast
12:03 PM 39.2 °F 34.2 °F 37.4 °F 93% 29.85 in 2.5 mi Variable 6.9 mph - N/A   Overcast
12:21 PM 39.2 °F 33.6 °F 37.4 °F 93% 29.84 in 3.0 mi North 8.1 mph 21.9 mph N/A   Overcast
12:48 PM 39.2 °F 33.6 °F 35.6 °F 87% 29.84 in 4.0 mi North 8.1 mph 23.0 mph N/A   Haze
12:51 PM 39.9 °F 33.9 °F 35.1 °F 83% 29.84 in 4.0 mi North 9.2 mph 23.0 mph N/A   Haze
1:43 PM 39.2 °F 33.0 °F 33.8 °F 81% 29.84 in 5.0 mi North 9.2 mph 19.6 mph N/A   Haze
1:51 PM 39.9 °F 33.4 °F 34.0 °F 79% 29.84 in 5.0 mi North 10.4 mph 21.9 mph N/A   Haze
2:51 PM 39.9 °F 33.4 °F 30.9 °F 70% 29.86 in 7.0 mi North 10.4 mph 26.5 mph N/A   Overcast
3:05 PM 39.2 °F 32.0 °F 30.2 °F 70% 29.87 in 8.0 mi North 11.5 mph 25.3 mph N/A   Overcast
3:51 PM 39.9 °F 32.9 °F 27.0 °F 60% 29.87 in 10.0 mi North 11.5 mph 24.2 mph N/A   Overcast
4:51 PM 39.0 °F 33.4 °F 28.0 °F 65% 29.89 in 10.0 mi North 8.1 mph 18.4 mph N/A   Overcast
5:51 PM 37.9 °F 30.5 °F 25.0 °F 60% 29.89 in 10.0 mi North 11.5 mph 23.0 mph N/A   Clear
6:51 PM 37.9 °F 32.1 °F 25.0 °F 60% 29.90 in 10.0 mi North 8.1 mph 18.4 mph N/A   Clear
7:51 PM 37.0 °F 31.0 °F 26.1 °F 65% 29.90 in 10.0 mi North 8.1 mph - N/A   Clear
8:51 PM 36.0 °F 28.5 °F 26.1 °F 67% 29.90 in 10.0 mi North 10.4 mph - N/A   Clear
9:51 PM 36.0 °F 28.5 °F 25.0 °F 64% 29.91 in 10.0 mi NNW 10.4 mph 23.0 mph N/A   Clear
10:51 PM 35.1 °F 27.4 °F 25.0 °F 67% 29.91 in 10.0 mi NNW 10.4 mph 20.7 mph N/A   Clear
11:51 PM 35.1 °F 28.6 °F 25.0 °F 67% 29.91 in 10.0 mi North 8.1 mph 24.2 mph N/A   Clear